Regional Weather Roundup
Issued by NWS Charleston, WV

Home | Current Version | Previous Version | Text Only | Print | Product List | Glossary Off
Versions: 1 2 3 4 5 6 7 8 9 10 11 12 13 14 15 16 17 18 19 20 21 22 23 24 25 26 27 28 29 30 31 32 33 34 35 36 37 38 39 40 41 42 43 44 45 46 47 48 49 50

000
ASUS41 KRLX 250310
RWRRLX
West Virginia Regional Weather Roundup
National Weather Service Charleston WV
1100 PM EDT FRI APR 24 2015

Note: "fair" indicates few or no clouds below 12,000 feet with no
significant weather and/or obstructions to visibility.

WVZ003-250400-
Northern Panhandle of West Virginia

CITY           SKY/WX    TMP DP  RH WIND       PRES   REMARKS
WHEELING       CLEAR     44  20  38 NE6       29.98F
$$

WVZ009-250400-
Northwest West Virginia

CITY           SKY/WX    TMP DP  RH WIND       PRES   REMARKS
PARKERSBURG    MOCLDY    47  28  47 CALM      29.99F
$$

WVZ006-250400-
Western West Virginia

CITY           SKY/WX    TMP DP  RH WIND       PRES   REMARKS
HUNTINGTON     CLOUDY    52  25  35 E3        29.95F
$$

WVZ015-250400-
West Central West Virginia

CITY           SKY/WX    TMP DP  RH WIND       PRES   REMARKS
CHARLESTON     MOCLDY    46  31  55 NE3       29.95F
$$

WVZ022-031-250400-
North Central West Virginia

CITY           SKY/WX    TMP DP  RH WIND       PRES   REMARKS
CLARKSBURG     PTCLDY    43  28  55 CALM      29.97F
MORGANTOWN       N/A     47  21  35 CALM      29.98F
$$

WVZ025-035-042-045-250400-
Southern West Virginia

CITY           SKY/WX    TMP DP  RH WIND       PRES   REMARKS
BECKLEY        MOCLDY    43  24  47 S3        29.97F
LOGAN          CLOUDY    54  19  26 CALM      29.91F
BLUEFIELD      PTCLDY    52  10  18 CALM      29.97F
LEWISBURG      MOCLDY    44  20  39 CALM      29.97F
$$

WVZ047-250400-
Northern Mountains of West Virginia

CITY           SKY/WX    TMP DP  RH WIND       PRES   REMARKS
ELKINS         MOCLDY    36  29  75 CALM      29.98F
$$

WVZ052-250400-
Eastern Panhandle of West Virginia

CITY           SKY/WX    TMP DP  RH WIND       PRES   REMARKS
MARTINSBURG    PTCLDY    50  21  32 CALM      29.96S
PETERSBURG     PTCLDY    43  26  49 CALM      29.98F
$$


USA.gov is the U.S. government's official web portal to all federal, state and local government web resources and services.